Sakura Rocket - Orbit

View from above orbital plane
View from above orbital plane
View from above satellite
View from above satellite

Ground track
Ground track

The orbit data is extracted from the following two-line orbital elements,

1 10517U 77118B   13142.19157596  .00000671  00000-0  10912-3 0  4931
2 10517 028.6592 151.5313 0862034 132.9860 311.7567 13.36168649709855
Epoch (UTC): 22 May 2013 04:35:52
Eccentricity: 0.0862034
inclination: 28.6592°
perigee height: 477 km
apogee height: 1770 km
right ascension of ascending node: 151.5313°
argument of perigee: 132.9860°
revolutions per day: 13.36168649
mean anomaly at epoch: 311.7567°
orbit number at epoch: 70985

The dashed part of the orbit path shows where the satellite is in the earth's shadow,  

Developed and maintained by Chris Peat, Heavens-Above GmbH. Please read the updated FAQ before sending e-mail. Imprint. DLR